| time (UTC) | temp F | wind direction | speed MPH | gust MPH | rain 1hr in | rain 24hr in | rain mn in | humidity % | barometer mb |
| 20260902030530 | 61 | 139 | 0.0 | 3.0 | 0.00 | 0.00 | 0.00 | 1 | 1009.2 |
| 20260902030029 | 61 | 162 | 0.0 | 7.0 | 0.00 | 0.00 | 0.00 | 1 | 1009.2 |
| 20260902025528 | 61 | 146 | 1.0 | 7.0 | 0.00 | 0.00 | 0.00 | 1 | 1009.2 |
| 20260902025014 | 61 | 203 | 0.0 | 4.0 | 0.00 | 0.00 | 0.00 | 1 | 1009.3 |
| 20260902024512 | 61 | 61 | 0.0 | 5.0 | 0.00 | 0.00 | 0.00 | 1 | 1009.3 |
| 20260902024012 | 61 | 215 | 1.0 | 5.0 | 0.00 | 0.00 | 0.00 | 1 | 1009.3 |
| 20260902023509 | 61 | 71 | 0.0 | 5.0 | 0.00 | 0.00 | 0.00 | 1 | 1009.4 |
| 20260902023008 | 61 | 101 | 0.0 | 4.0 | 0.00 | 0.00 | 0.00 | 1 | 1009.4 |
| 20260902022508 | 61 | 229 | 0.0 | 6.0 | 0.00 | 0.00 | 0.00 | 1 | 1009.4 |
| 20260902022005 | 61 | 167 | 1.0 | 6.0 | 0.00 | 0.00 | 0.00 | 1 | 1009.5 |
| 20260902021511 | 61 | 211 | 0.0 | 5.0 | 0.00 | 0.00 | 0.00 | 1 | 1009.6 |
| 20260902021002 | 61 | 344 | 1.0 | 6.0 | 0.00 | 0.00 | 0.00 | 1 | 1009.6 |
| 20260902020503 | 60 | 221 | 1.0 | 6.0 | 0.00 | 0.00 | 0.00 | 1 | 1009.7 |
| 20260902020001 | 60 | 245 | 2.0 | 5.0 | 0.00 | 0.00 | 0.00 | 1 | 1009.7 |
| 20260902015604 | 60 | 101 | 0.0 | 3.0 | 0.00 | 0.00 | 0.00 | 1 | 1009.7 |
| 20260902015102 | 60 | 70 | 0.0 | 7.0 | 0.00 | 0.00 | 0.00 | 1 | 1009.7 |
| 20260902014558 | 60 | 239 | 0.0 | 7.0 | 0.00 | 0.00 | 0.00 | 1 | 1009.7 |
| 20260902014058 | 60 | 219 | 1.0 | 4.0 | 0.00 | 0.00 | 0.00 | 1 | 1009.7 |
| 20260902013554 | 61 | 188 | 1.0 | 4.0 | 0.00 | 0.00 | 0.00 | 1 | 1009.8 |
| 20260902013053 | 61 | 238 | 0.0 | 3.0 | 0.00 | 0.00 | 0.00 | 1 | 1009.8 |
| 20260902012550 | 61 | 217 | 0.0 | 5.0 | 0.00 | 0.00 | 0.00 | 1 | 1009.8 |
| 20260902012049 | 61 | 224 | 0.0 | 5.0 | 0.00 | 0.00 | 0.00 | 1 | 1009.8 |
| 20260902011548 | 61 | 60 | 0.0 | 8.0 | 0.00 | 0.00 | 0.00 | 1 | 1009.8 |
| 20260902011049 | 62 | 215 | 1.0 | 8.0 | 0.00 | 0.00 | 0.00 | 1 | 1009.7 |
| 20260902010544 | 62 | 212 | 0.0 | 3.0 | 0.00 | 0.00 | 0.00 | 1 | 1009.7 |
| 20260902010043 | 62 | 204 | 0.0 | 8.0 | 0.00 | 0.00 | 0.00 | 1 | 1009.7 |
| 20260902005542 | 62 | 205 | 0.0 | 4.0 | 0.00 | 0.00 | 0.00 | 1 | 1009.7 |
| 20260902005041 | 62 | 218 | 0.0 | 4.0 | 0.00 | 0.00 | 0.00 | 1 | 1009.6 |
| 20260902004528 | 62 | 148 | 0.0 | 5.0 | 0.00 | 0.00 | 0.00 | 1 | 1009.6 |
| 20260902004034 | 63 | 257 | 1.0 | 11.0 | 0.00 | 0.00 | 0.00 | 1 | 1009.6 |
| 20260902003523 | 63 | 201 | 2.0 | 11.0 | 0.00 | 0.00 | 0.00 | 1 | 1009.7 |
| 20260902003022 | 64 | 287 | 1.0 | 6.0 | 0.00 | 0.00 | 0.00 | 1 | 1009.7 |
| 20260902002520 | 66 | 228 | 1.0 | 4.0 | 0.00 | 0.00 | 0.00 | 1 | 1009.7 |
| 20260902002027 | 67 | 250 | 0.0 | 6.0 | 0.00 | 0.00 | 0.00 | 1 | 1009.6 |
| 20260902001519 | 68 | 228 | 1.0 | 8.0 | 0.00 | 0.00 | 0.00 | 1 | 1009.6 |
| 20260902001015 | 68 | 265 | 3.0 | 8.0 | 0.00 | 0.00 | 0.00 | 1 | 1009.6 |
| 20260902000514 | 68 | 174 | 0.0 | 4.0 | 0.00 | 0.00 | 0.00 | 1 | 1009.6 |
| 20260902000024 | 68 | 60 | 0.0 | 5.0 | 0.00 | 0.00 | 0.00 | 1 | 1009.5 |
| 20260901235511 | 68 | 112 | 1.0 | 5.0 | 0.00 | 0.00 | 0.00 | 1 | 1009.5 |
| 20260901235012 | 67 | 212 | 0.0 | 4.0 | 0.00 | 0.00 | 0.00 | 1 | 1009.5 |
| 20260901234509 | 67 | 101 | 0.0 | 4.0 | 0.00 | 0.00 | 0.00 | 1 | 1009.6 |
| 20260901234008 | 67 | 83 | 0.0 | 4.0 | 0.00 | 0.00 | 0.00 | 1 | 1009.7 |
| 20260901233509 | 66 | 198 | 1.0 | 5.0 | 0.00 | 0.00 | 0.00 | 1 | 1009.7 |
| 20260901233005 | 66 | 81 | 0.0 | 5.0 | 0.00 | 0.00 | 0.00 | 1 | 1009.8 |
| 20260901232503 | 67 | 228 | 1.0 | 4.0 | 0.00 | 0.00 | 0.00 | 1 | 1009.9 |
| 20260901232002 | 67 | 229 | 0.0 | 5.0 | 0.00 | 0.00 | 0.00 | 1 | 1009.8 |
| 20260901231601 | 66 | 229 | 2.0 | 6.0 | 0.00 | 0.00 | 0.00 | 1 | 1009.8 |
| 20260901231100 | 67 | 235 | 1.0 | 6.0 | 0.00 | 0.00 | 0.00 | 1 | 1010.0 |
| 20260901230557 | 67 | 229 | 1.0 | 5.0 | 0.00 | 0.00 | 0.00 | 1 | 1009.9 |
| 20260901230059 | 67 | 235 | 2.0 | 6.0 | 0.00 | 0.00 | 0.00 | 1 | 1009.9 |
| 20260901225556 | 67 | 229 | 0.0 | 9.0 | 0.00 | 0.00 | 0.00 | 1 | 1009.8 |
| 20260901225052 | 66 | 79 | 0.0 | 9.0 | 0.00 | 0.00 | 0.00 | 1 | 1009.8 |
| 20260901224534 | 66 | 267 | 0.0 | 8.0 | 0.00 | 0.00 | 0.00 | 1 | 1009.9 |
| 20260901224033 | 65 | 228 | 2.0 | 8.0 | 0.00 | 0.00 | 0.00 | 1 | 1009.8 |
| 20260901223531 | 65 | 291 | 0.0 | 7.0 | 0.00 | 0.00 | 0.00 | 1 | 1009.8 |
| 20260901223030 | 64 | 203 | 1.0 | 6.0 | 0.00 | 0.00 | 0.00 | 1 | 1009.8 |
| 20260901222530 | 63 | 235 | 1.0 | 8.0 | 0.00 | 0.00 | 0.00 | 1 | 1009.9 |
| 20260901222028 | 63 | 238 | 2.0 | 8.0 | 0.00 | 0.00 | 0.00 | 1 | 1009.9 |
| 20260901221528 | 62 | 191 | 1.0 | 8.0 | 0.00 | 0.00 | 0.00 | 1 | 1009.9 |
| 20260901221028 | 62 | 235 | 2.0 | 8.0 | 0.00 | 0.00 | 0.00 | 1 | 1009.9 |
| 20260901220527 | 62 | 209 | 3.0 | 6.0 | 0.00 | 0.00 | 0.00 | 1 | 1009.9 |
| 20260901220041 | 62 | 226 | 2.0 | 7.0 | 0.00 | 0.00 | 0.00 | 1 | 1009.9 |
| 20260901215532 | 62 | 245 | 2.0 | 7.0 | 0.00 | 0.00 | 0.00 | 1 | 1010.0 |
| 20260901215027 | 62 | 227 | 1.0 | 8.0 | 0.00 | 0.00 | 0.00 | 1 | 1010.0 |
| 20260901214510 | 62 | 232 | 2.0 | 8.0 | 0.00 | 0.00 | 0.00 | 1 | 1010.0 |
| 20260901214011 | 62 | 228 | 2.0 | 7.0 | 0.00 | 0.00 | 0.00 | 1 | 1009.9 |
| 20260901213508 | 63 | 223 | 0.0 | 5.0 | 0.00 | 0.00 | 0.00 | 1 | 1010.0 |
| 20260901213008 | 63 | 227 | 0.0 | 8.0 | 0.00 | 0.00 | 0.00 | 1 | 1009.9 |
| 20260901212508 | 62 | 231 | 0.0 | 8.0 | 0.00 | 0.00 | 0.00 | 1 | 1010.0 |
| 20260901212011 | 63 | 226 | 0.0 | 3.0 | 0.00 | 0.00 | 0.00 | 1 | 1010.0 |
| 20260901211549 | 63 | 240 | 0.0 | 3.0 | 0.00 | 0.00 | 0.00 | 1 | 1010.1 |
| 20260901211050 | 62 | 266 | 0.0 | 8.0 | 0.00 | 0.00 | 0.00 | 1 | 1010.1 |
| 20260901210546 | 62 | 228 | 1.0 | 8.0 | 0.00 | 0.00 | 0.00 | 1 | 1010.1 |
| 20260901210059 | 62 | 215 | 1.0 | 7.0 | 0.00 | 0.00 | 0.00 | 1 | 1010.2 |
| 20260901205544 | 63 | 221 | 2.0 | 4.0 | 0.00 | 0.00 | 0.00 | 1 | 1010.2 |
| 20260901205042 | 62 | 240 | 0.0 | 5.0 | 0.00 | 0.00 | 0.00 | 1 | 1010.2 |
| 20260901204523 | 63 | 97 | 1.0 | 5.0 | 0.00 | 0.00 | 0.00 | 1 | 1010.2 |
| 20260901204021 | 64 | 207 | 1.0 | 5.0 | 0.00 | 0.00 | 0.00 | 1 | 1010.3 |
| 20260901203520 | 63 | 217 | 0.0 | 3.0 | 0.00 | 0.00 | 0.00 | 1 | 1010.3 |
| 20260901203036 | 63 | 207 | 1.0 | 6.0 | 0.00 | 0.00 | 0.00 | 1 | 1010.3 |
| 20260901202516 | 63 | 226 | 1.0 | 6.0 | 0.00 | 0.00 | 0.00 | 1 | 1010.3 |
| 20260901202017 | 64 | 229 | 1.0 | 8.0 | 0.00 | 0.00 | 0.00 | 1 | 1010.3 |
| 20260901201617 | 64 | 257 | 2.0 | 8.0 | 0.00 | 0.00 | 0.00 | 1 | 1010.3 |
| 20260901201100 | 63 | 131 | 0.0 | 6.0 | 0.00 | 0.00 | 0.00 | 1 | 1010.2 |
| 20260901200559 | 64 | 20 | 0.0 | 6.0 | 0.00 | 0.00 | 0.00 | 1 | 1010.3 |
| 20260901195600 | 64 | 225 | 0.0 | 5.0 | 0.00 | 0.00 | 0.00 | 1 | 1010.3 |
| 20260901195055 | 64 | 194 | 0.0 | 5.0 | 0.00 | 0.00 | 0.00 | 1 | 1010.4 |
| 20260901194603 | 64 | 239 | 0.0 | 6.0 | 0.00 | 0.00 | 0.00 | 1 | 1010.4 |
| 20260901194037 | 63 | 111 | 0.0 | 7.0 | 0.00 | 0.00 | 0.00 | 1 | 1010.4 |
| 20260901193534 | 64 | 238 | 1.0 | 6.0 | 0.00 | 0.00 | 0.00 | 1 | 1010.5 |
| 20260901193034 | 63 | 222 | 0.0 | 4.0 | 0.00 | 0.00 | 0.00 | 1 | 1010.4 |
| 20260901192537 | 63 | 240 | 1.0 | 4.0 | 0.00 | 0.00 | 0.00 | 1 | 1010.4 |
| 20260901192034 | 63 | 242 | 0.0 | 4.0 | 0.00 | 0.00 | 0.00 | 1 | 1010.4 |
| 20260901191534 | 63 | 217 | 0.0 | 4.0 | 0.00 | 0.00 | 0.00 | 1 | 1010.4 |
| 20260901191016 | 63 | 228 | 0.0 | 5.0 | 0.00 | 0.00 | 0.00 | 1 | 1010.5 |
| 20260901190514 | 63 | 232 | 1.0 | 5.0 | 0.00 | 0.00 | 0.00 | 1 | 1010.5 |
| 20260901190029 | 64 | 115 | 1.0 | 5.0 | 0.00 | 0.00 | 0.00 | 1 | 1010.4 |
| 20260901185513 | 63 | 127 | 0.0 | 4.0 | 0.00 | 0.00 | 0.00 | 1 | 1010.4 |
| 20260901185012 | 63 | 228 | 1.0 | 4.0 | 0.00 | 0.00 | 0.00 | 1 | 1010.4 |
| 20260901184509 | 63 | 218 | 1.0 | 3.0 | 0.00 | 0.00 | 0.00 | 1 | 1010.5 |
| 20260901184054 | 63 | 228 | 0.0 | 5.0 | 0.00 | 0.00 | 0.00 | 1 | 1010.4 |
| 20260901183552 | 62 | 205 | 0.0 | 5.0 | 0.00 | 0.00 | 0.00 | 1 | 1010.5 |
| 20260901183051 | 61 | 161 | 0.0 | 2.0 | 0.00 | 0.00 | 0.00 | 1 | 1010.4 |
| 20260901182549 | 61 | 214 | 0.0 | 6.0 | 0.00 | 0.00 | 0.00 | 1 | 1010.5 |
| 20260901182048 | 61 | 214 | 0.0 | 5.0 | 0.00 | 0.00 | 0.00 | 1 | 1010.5 |
| 20260901181547 | 61 | 211 | 1.0 | 5.0 | 0.00 | 0.00 | 0.00 | 1 | 1010.5 |
| 20260901181046 | 61 | 68 | 1.0 | 5.0 | 0.00 | 0.00 | 0.00 | 1 | 1010.4 |
| 20260901180544 | 61 | 232 | 0.0 | 2.0 | 0.00 | 0.00 | 0.00 | 1 | 1010.4 |
| 20260901180042 | 61 | 224 | 0.0 | 2.0 | 0.00 | 0.00 | 0.00 | 1 | 1010.4 |
| 20260901175540 | 61 | 98 | 0.0 | 2.0 | 0.00 | 0.00 | 0.00 | 1 | 1010.4 |
| 20260901175039 | 61 | 226 | 0.0 | 1.0 | 0.00 | 0.00 | 0.00 | 1 | 1010.3 |
| 20260901174540 | 61 | 229 | 0.0 | 1.0 | 0.00 | 0.00 | 0.00 | 1 | 1010.3 |
| 20260901174039 | 60 | 228 | 0.0 | 5.0 | 0.00 | 0.00 | 0.00 | 1 | 1010.3 |
| 20260901173539 | 60 | 212 | 0.0 | 5.0 | 0.00 | 0.00 | 0.00 | 1 | 1010.3 |
| 20260901173037 | 60 | 211 | 0.0 | 2.0 | 0.00 | 0.00 | 0.00 | 1 | 1010.3 |
| 20260901172536 | 60 | 203 | 0.0 | 2.0 | 0.00 | 0.00 | 0.00 | 1 | 1010.3 |
| 20260901172034 | 60 | 225 | 0.0 | 1.0 | 0.00 | 0.00 | 0.00 | 1 | 1010.2 |
| 20260901171533 | 60 | 205 | 0.0 | 3.0 | 0.00 | 0.00 | 0.00 | 1 | 1010.3 |
| 20260901171030 | 60 | 221 | 0.0 | 3.0 | 0.00 | 0.00 | 0.00 | 1 | 1010.3 |
| 20260901170529 | 60 | 224 | 0.0 | 5.0 | 0.00 | 0.00 | 0.00 | 1 | 1010.2 |
| 20260901170027 | 60 | 250 | 0.0 | 5.0 | 0.00 | 0.00 | 0.00 | 1 | 1010.2 |
| 20260901165525 | 60 | 229 | 0.0 | 0.0 | 0.00 | 0.00 | 0.00 | 1 | 1010.2 |
| 20260901165027 | 60 | 236 | 0.0 | 0.0 | 0.00 | 0.00 | 0.00 | 1 | 1010.1 |
| 20260901164523 | 60 | 233 | 0.0 | 0.0 | 0.00 | 0.00 | 0.00 | 1 | 1010.1 |
| 20260901164006 | 60 | 221 | 0.0 | 0.0 | 0.00 | 0.00 | 0.00 | 1 | 1010.1 |
| 20260901163503 | 60 | 229 | 0.0 | 0.0 | 0.00 | 0.00 | 0.00 | 1 | 1010.1 |
| 20260901163001 | 60 | 220 | 0.0 | 0.0 | 0.00 | 0.00 | 0.00 | 1 | 1010.1 |
| 20260901162600 | 60 | 238 | 0.0 | 0.0 | 0.00 | 0.00 | 0.00 | 1 | 1010.1 |
| 20260901162102 | 60 | 193 | 0.0 | 0.0 | 0.00 | 0.00 | 0.00 | 1 | 1010.1 |
| 20260901161610 | 60 | 224 | 0.0 | 0.0 | 0.00 | 0.00 | 0.00 | 1 | 1010.1 |
| 20260901161038 | 60 | 224 | 0.0 | 0.0 | 0.00 | 0.00 | 0.00 | 1 | 1010.1 |
| 20260901160539 | 61 | 220 | 0.0 | 0.0 | 0.00 | 0.00 | 0.00 | 1 | 1010.1 |
| 20260901160035 | 61 | 246 | 0.0 | 0.0 | 0.00 | 0.00 | 0.00 | 1 | 1010.1 |
| 20260901155534 | 61 | 228 | 0.0 | 0.0 | 0.00 | 0.00 | 0.00 | 1 | 1010.1 |
| 20260901155032 | 60 | 228 | 0.0 | 0.0 | 0.00 | 0.00 | 0.00 | 1 | 1010.1 |
| 20260901154532 | 60 | 228 | 0.0 | 0.0 | 0.00 | 0.00 | 0.00 | 1 | 1010.1 |
| 20260901154017 | 60 | 228 | 0.0 | 0.0 | 0.00 | 0.00 | 0.00 | 1 | 1010.1 |
| 20260901153516 | 60 | 229 | 0.0 | 0.0 | 0.00 | 0.00 | 0.00 | 1 | 1010.1 |
| 20260901153027 | 60 | 229 | 0.0 | 0.0 | 0.00 | 0.00 | 0.00 | 1 | 1010.1 |
| 20260901152513 | 60 | 229 | 0.0 | 0.0 | 0.00 | 0.00 | 0.00 | 1 | 1010.1 |
| 20260901152012 | 60 | 229 | 0.0 | 0.0 | 0.00 | 0.00 | 0.00 | 1010.1 | |
| 20260901151515 | 0 | 0.0 | 0.0 | 0.00 | 0.00 | 0.00 | 1010.0 | ||
| 20260901151009 | 0 | 0.0 | 0.0 | 0.00 | 0.00 | 0.00 | 1009.9 | ||
| 20260901150507 | 0 | 0.0 | 0.0 | 0.00 | 0.00 | 0.00 | 1009.9 | ||
| 20260901150018 | 0 | 0.0 | 0.0 | 0.00 | 0.00 | 0.00 | 1009.8 | ||
| 20260901145505 | 0 | 0.0 | 0.0 | 0.00 | 0.00 | 0.00 | 1009.9 | ||
| 20260901145002 | 0 | 0.0 | 0.0 | 0.00 | 0.00 | 0.00 | 1009.9 | ||
| 20260901144501 | 0 | 0.0 | 0.0 | 0.00 | 0.00 | 0.00 | 1009.8 | ||
| 20260901144101 | 0 | 0.0 | 0.0 | 0.00 | 0.00 | 0.00 | 1009.8 | ||
| 20260901143559 | 0 | 0.0 | 0.0 | 0.00 | 0.00 | 0.00 | 1009.8 | ||
| 20260901143123 | 0 | 0.0 | 0.0 | 0.00 | 0.00 | 0.00 | 1009.7 | ||
| 20260901142555 | 0 | 0.0 | 0.0 | 0.00 | 0.00 | 0.00 | 1009.7 | ||
| 20260901142054 | 0 | 0.0 | 0.0 | 0.00 | 0.00 | 0.00 | 1009.7 | ||
| 20260901141607 | 0 | 0.0 | 0.0 | 0.00 | 0.00 | 0.00 | 1009.6 | ||
| 20260901141052 | 0 | 0.0 | 0.0 | 0.00 | 0.00 | 0.00 | 1009.6 | ||
| 20260901140550 | 0 | 0.0 | 0.0 | 0.00 | 0.00 | 0.00 | 1009.6 | ||
| 20260901140048 | 0 | 0.0 | 0.0 | 0.00 | 0.00 | 0.00 | 1009.6 | ||
| 20260901135547 | 0 | 0.0 | 0.0 | 0.00 | 0.00 | 0.00 | 1009.6 | ||
| 20260901135045 | 0 | 0.0 | 0.0 | 0.00 | 0.00 | 0.00 | 1009.5 | ||
| 20260901134545 | 0 | 0.0 | 0.0 | 0.00 | 0.00 | 0.00 | 1009.5 | ||
| 20260901134043 | 0 | 0.0 | 0.0 | 0.00 | 0.00 | 0.00 | 1009.5 | ||
| 20260901133524 | 0 | 0.0 | 0.0 | 0.00 | 0.00 | 0.00 | 1009.5 | ||
| 20260901133031 | 0 | 0.0 | 0.0 | 0.00 | 0.00 | 0.00 | 1009.5 | ||
| 20260901132522 | 0 | 0.0 | 0.0 | 0.00 | 0.00 | 0.00 | 1009.5 | ||
| 20260901132020 | 0 | 0.0 | 0.0 | 0.00 | 0.00 | 0.00 | 1009.5 | ||
| 20260901131521 | 0 | 0.0 | 0.0 | 0.00 | 0.00 | 0.00 | 1009.5 | ||
| 20260901131017 | 0 | 0.0 | 0.0 | 0.00 | 0.00 | 0.00 | 1009.4 | ||
| 20260901130600 | 0 | 0.0 | 0.0 | 0.00 | 0.00 | 0.00 | 1009.5 | ||
| 20260901130057 | 0 | 0.0 | 0.0 | 0.00 | 0.00 | 0.00 | 1009.6 | ||
| 20260901125556 | 0 | 0.0 | 0.0 | 0.00 | 0.00 | 0.00 | 1009.5 | ||
| 20260901125058 | 0 | 0.0 | 0.0 | 0.00 | 0.00 | 0.00 | 1009.5 | ||
| 20260901124553 | 0 | 0.0 | 0.0 | 0.00 | 0.00 | 0.00 | 1009.5 | ||
| 20260901124051 | 0 | 0.0 | 0.0 | 0.00 | 0.00 | 0.00 | 1009.5 | ||
| 20260901123532 | 0 | 0.0 | 0.0 | 0.00 | 0.00 | 0.00 | 1009.5 | ||
| 20260901123031 | 0 | 0.0 | 0.0 | 0.00 | 0.00 | 0.00 | 1009.5 | ||
| 20260901122532 | 0 | 0.0 | 0.0 | 0.00 | 0.00 | 0.00 | 1009.5 | ||
| 20260901122028 | 0 | 0.0 | 0.0 | 0.00 | 0.00 | 0.00 | 1009.5 | ||
| 20260901121526 | 0 | 0.0 | 0.0 | 0.00 | 0.00 | 0.00 | 1009.6 | ||
| 20260901121025 | 0 | 0.0 | 0.0 | 0.00 | 0.00 | 0.00 | 1009.6 | ||
| 20260901120507 | 0 | 0.0 | 0.0 | 0.00 | 0.00 | 0.00 | 1009.6 | ||
| 20260901120004 | 0 | 0.0 | 0.0 | 0.00 | 0.00 | 0.00 | 1009.6 | ||
| 20260901115504 | 0 | 0.0 | 0.0 | 0.00 | 0.00 | 0.00 | 1009.5 | ||
| 20260901115001 | 0 | 0.0 | 0.0 | 0.00 | 0.00 | 0.00 | 1009.6 | ||
| 20260901114602 | 0 | 0.0 | 0.0 | 0.00 | 0.00 | 0.00 | 1009.5 | ||
| 20260901114059 | 0 | 0.0 | 0.0 | 0.00 | 0.00 | 0.00 | 1009.4 | ||
| 20260901113540 | 0 | 0.0 | 0.0 | 0.00 | 0.00 | 0.00 | 1009.4 | ||
| 20260901113051 | 0 | 0.0 | 0.0 | 0.00 | 0.00 | 0.00 | 1009.5 | ||
| 20260901112537 | 0 | 0.0 | 0.0 | 0.00 | 0.00 | 0.00 | 1009.6 | ||
| 20260901112035 | 0 | 0.0 | 0.0 | 0.00 | 0.00 | 0.00 | 1009.5 | ||
| 20260901111535 | 0 | 0.0 | 0.0 | 0.00 | 0.00 | 0.00 | 1009.5 | ||
| 20260901111033 | 0 | 0.0 | 0.0 | 0.00 | 0.00 | 0.00 | 1009.6 | ||
| 20260901110514 | 0 | 0.0 | 0.0 | 0.00 | 0.00 | 0.00 | 1009.4 | ||
| 20260901110013 | 0 | 0.0 | 0.0 | 0.00 | 0.00 | 0.00 | 1009.4 | ||
| 20260901105513 | 0 | 0.0 | 0.0 | 0.00 | 0.00 | 0.00 | 1009.4 | ||
| 20260901105010 | 0 | 0.0 | 0.0 | 0.00 | 0.00 | 0.00 | 1009.3 | ||
| 20260901104520 | 0 | 0.0 | 0.0 | 0.00 | 0.00 | 0.00 | 1009.3 | ||
| 20260901104010 | 0 | 0.0 | 0.0 | 0.00 | 0.00 | 0.00 | 1009.3 | ||
| 20260901103548 | 0 | 0.0 | 0.0 | 0.00 | 0.00 | 0.00 | 1009.3 | ||
| 20260901103047 | 0 | 0.0 | 0.0 | 0.00 | 0.00 | 0.00 | 1009.4 | ||
| 20260901102547 | 0 | 0.0 | 0.0 | 0.00 | 0.00 | 0.00 | 1009.4 | ||
| 20260901102045 | 0 | 0.0 | 0.0 | 0.00 | 0.00 | 0.00 | 1009.3 | ||
| 20260901101551 | 0 | 0.0 | 0.0 | 0.00 | 0.00 | 0.00 | 1009.3 | ||
| 20260901101046 | 0 | 0.0 | 0.0 | 0.00 | 0.00 | 0.00 | 1009.4 | ||
| 20260901100523 | 0 | 0.0 | 0.0 | 0.00 | 0.00 | 0.00 | 1009.3 | ||
| 20260901100023 | 0 | 0.0 | 0.0 | 0.00 | 0.00 | 0.00 | 1009.3 | ||
| 20260901095519 | 0 | 0.0 | 0.0 | 0.00 | 0.00 | 0.00 | 1009.2 | ||
| 20260901095018 | 0 | 0.0 | 0.0 | 0.00 | 0.00 | 0.00 | 1009.2 | ||
| 20260901094517 | 0 | 0.0 | 0.0 | 0.00 | 0.00 | 0.00 | 1009.2 | ||
| 20260901094015 | 0 | 0.0 | 0.0 | 0.00 | 0.00 | 0.00 | 1009.2 | ||
| 20260901093556 | 0 | 0.0 | 0.0 | 0.00 | 0.00 | 0.00 | 1009.2 | ||
| 20260901093056 | 0 | 0.0 | 0.0 | 0.00 | 0.00 | 0.00 | 1009.3 | ||
| 20260901092554 | 0 | 0.0 | 0.0 | 0.00 | 0.00 | 0.00 | 1009.3 | ||
| 20260901092052 | 0 | 0.0 | 0.0 | 0.00 | 0.00 | 0.00 | 1009.3 | ||
| 20260901091600 | 0 | 0.0 | 0.0 | 0.00 | 0.00 | 0.00 | 1009.2 | ||
| 20260901091048 | 0 | 0.0 | 0.0 | 0.00 | 0.00 | 0.00 | 1009.1 | ||
| 20260901090530 | 0 | 0.0 | 0.0 | 0.00 | 0.00 | 0.00 | 1009.1 | ||
| 20260901090031 | 0 | 0.0 | 0.0 | 0.00 | 0.00 | 0.00 | 1009.0 | ||
| 20260901085527 | 0 | 0.0 | 0.0 | 0.00 | 0.00 | 0.00 | 1008.9 | ||
| 20260901085025 | 0 | 0.0 | 0.0 | 0.00 | 0.00 | 0.00 | 1009.0 | ||
| 20260901084525 | 0 | 0.0 | 0.0 | 0.00 | 0.00 | 0.00 | 1009.1 | ||
| 20260901084024 | 0 | 0.0 | 0.0 | 0.00 | 0.00 | 0.00 | 1009.1 | ||
| 20260901083503 | 0 | 0.0 | 0.0 | 0.00 | 0.00 | 0.00 | 1009.1 | ||
| 20260901083002 | 0 | 0.0 | 0.0 | 0.00 | 0.00 | 0.00 | 1009.1 | ||
| 20260901082601 | 0 | 0.0 | 0.0 | 0.00 | 0.00 | 0.00 | 1009.0 | ||
| 20260901082059 | 0 | 0.0 | 0.0 | 0.00 | 0.00 | 0.00 | 1009.1 | ||
| 20260901081558 | 0 | 0.0 | 0.0 | 0.00 | 0.00 | 0.00 | 1009.0 | ||
| 20260901081057 | 0 | 0.0 | 0.0 | 0.00 | 0.00 | 0.00 | 1009.0 | ||
| 20260901080556 | 0 | 0.0 | 0.0 | 0.00 | 0.00 | 0.00 | 1009.0 | ||
| 20260901080037 | 0 | 0.0 | 0.0 | 0.00 | 0.00 | 0.00 | 1008.9 | ||
| 20260901075535 | 0 | 0.0 | 0.0 | 0.00 | 0.00 | 0.00 | 1008.9 | ||
| 20260901075034 | 0 | 0.0 | 0.0 | 0.00 | 0.00 | 0.00 | 1008.9 | ||
| 20260901074542 | 0 | 0.0 | 0.0 | 0.00 | 0.00 | 0.00 | 1008.9 | ||
| 20260901074034 | 0 | 0.0 | 0.0 | 0.00 | 0.00 | 0.00 | 1008.8 | ||
| 20260901073530 | 0 | 0.0 | 0.0 | 0.00 | 0.00 | 0.00 | 1008.6 | ||
| 20260901073010 | 0 | 0.0 | 0.0 | 0.00 | 0.00 | 0.00 | 1008.6 | ||
| 20260901072509 | 0 | 0.0 | 0.0 | 0.00 | 0.00 | 0.00 | 1008.7 | ||
| 20260901072010 | 0 | 0.0 | 0.0 | 0.00 | 0.00 | 0.00 | 1008.6 | ||
| 20260901071507 | 0 | 0.0 | 0.0 | 0.00 | 0.00 | 0.00 | 1008.6 | ||
| 20260901071008 | 0 | 0.0 | 0.0 | 0.00 | 0.00 | 0.00 | 1008.7 | ||
| 20260901070508 | 0 | 0.0 | 0.0 | 0.00 | 0.00 | 0.00 | 1008.6 | ||
| 20260901070046 | 0 | 0.0 | 0.0 | 0.00 | 0.00 | 0.00 | 1008.6 | ||
| 20260901065545 | 0 | 0.0 | 0.0 | 0.00 | 0.00 | 0.00 | 1008.5 | ||
| 20260901065046 | 0 | 0.0 | 0.0 | 0.00 | 0.00 | 0.00 | 1008.5 | ||
| 20260901064543 | 0 | 0.0 | 0.0 | 0.00 | 0.00 | 0.00 | 1008.6 | ||
| 20260901064041 | 0 | 0.0 | 0.0 | 0.00 | 0.00 | 0.00 | 1008.5 | ||
| 20260901063539 | 0 | 0.0 | 0.0 | 0.00 | 0.00 | 0.00 | 1008.5 | ||
| 20260901063020 | 0 | 0.0 | 0.0 | 0.00 | 0.00 | 0.00 | 1008.4 | ||
| 20260901062518 | 0 | 0.0 | 0.0 | 0.00 | 0.00 | 0.00 | 1008.5 | ||
| 20260901062020 | 0 | 0.0 | 0.0 | 0.00 | 0.00 | 0.00 | 1008.5 | ||
| 20260901061516 | 58 | 20 | 0.0 | 0.0 | 0.00 | 0.00 | 0.00 | 1 | 1008.6 |
| 20260901061015 | 58 | 20 | 0.0 | 0.0 | 0.00 | 0.00 | 0.00 | 1 | 1008.6 |
| 20260901060514 | 59 | 20 | 0.0 | 0.0 | 0.00 | 0.00 | 0.00 | 1 | 1008.6 |
| 20260901060105 | 59 | 20 | 0.0 | 0.0 | 0.00 | 0.00 | 0.00 | 1 | 1008.6 |
| 20260901055600 | 59 | 74 | 0.0 | 1.0 | 0.00 | 0.00 | 0.00 | 1 | 1008.7 |
| 20260901055058 | 59 | 103 | 0.0 | 1.0 | 0.00 | 0.00 | 0.00 | 1 | 1008.6 |
| 20260901054556 | 59 | 86 | 0.0 | 1.0 | 0.00 | 0.00 | 0.00 | 1 | 1008.6 |
| 20260901054054 | 59 | 84 | 0.0 | 1.0 | 0.00 | 0.00 | 0.00 | 1 | 1008.6 |
| 20260901053558 | 59 | 356 | 0.0 | 0.0 | 0.00 | 0.00 | 0.00 | 1 | 1008.6 |
| 20260901053057 | 59 | 269 | 0.0 | 0.0 | 0.00 | 0.00 | 0.00 | 1 | 1008.5 |
| 20260901052550 | 59 | 127 | 0.0 | 0.0 | 0.00 | 0.00 | 0.00 | 1 | 1008.6 |
| 20260901052048 | 59 | 120 | 0.0 | 0.0 | 0.00 | 0.00 | 0.00 | 1 | 1008.5 |
| 20260901051547 | 59 | 241 | 0.0 | 0.0 | 0.00 | 0.00 | 0.00 | 1 | 1008.5 |
| 20260901051046 | 59 | 233 | 0.0 | 0.0 | 0.00 | 0.00 | 0.00 | 1 | 1008.5 |
| 20260901050545 | 59 | 219 | 0.0 | 0.0 | 0.00 | 0.00 | 0.00 | 1 | 1008.5 |
| 20260901050043 | 59 | 219 | 0.0 | 0.0 | 0.00 | 0.00 | 0.00 | 1 | 1008.4 |
| 20260901045544 | 59 | 152 | 0.0 | 0.0 | 0.00 | 0.00 | 0.00 | 1 | 1008.5 |
| 20260901045043 | 59 | 223 | 0.0 | 0.0 | 0.00 | 0.00 | 0.00 | 1 | 1008.4 |
| 20260901044540 | 59 | 291 | 0.0 | 0.0 | 0.00 | 0.00 | 0.00 | 1 | 1008.4 |
| 20260901044040 | 59 | 290 | 0.0 | 0.0 | 0.00 | 0.00 | 0.00 | 1 | 1008.4 |
| 20260901043539 | 59 | 303 | 0.0 | 1.0 | 0.00 | 0.00 | 0.00 | 1 | 1008.3 |
| 20260901043051 | 59 | 290 | 0.0 | 1.0 | 0.00 | 0.00 | 0.00 | 1 | 1008.3 |
| 20260901042537 | 59 | 188 | 0.0 | 1.0 | 0.00 | 0.00 | 0.00 | 1 | 1008.3 |
| 20260901042035 | 59 | 264 | 0.0 | 2.0 | 0.00 | 0.00 | 0.00 | 1 | 1008.3 |
| 20260901041535 | 59 | 173 | 0.0 | 2.0 | 0.00 | 0.00 | 0.00 | 1 | 1008.3 |
| 20260901041035 | 59 | 265 | 0.0 | 1.0 | 0.00 | 0.00 | 0.00 | 1 | 1008.2 |
| 20260901040534 | 59 | 302 | 0.0 | 2.0 | 0.00 | 0.00 | 0.00 | 1 | 1008.2 |
| 20260901040016 | 59 | 348 | 0.0 | 4.0 | 0.00 | 0.00 | 0.00 | 1 | 1008.2 |
| 20260901035514 | 59 | 235 | 0.0 | 3.0 | 0.00 | 0.00 | 0.00 | 1 | 1008.2 |
| 20260901035015 | 59 | 68 | 0.0 | 3.0 | 0.00 | 0.00 | 0.00 | 1 | 1008.2 |
| 20260901034511 | 59 | 255 | 0.0 | 1.0 | 0.00 | 0.00 | 0.00 | 1 | 1008.1 |
| 20260901034012 | 59 | 293 | 0.0 | 4.0 | 0.00 | 0.00 | 0.00 | 1 | 1008.1 |
| 20260901033509 | 59 | 289 | 0.0 | 4.0 | 0.00 | 0.00 | 0.00 | 1 | 1008.0 |
| 20260901033107 | 59 | 238 | 0.0 | 3.0 | 0.00 | 0.00 | 0.00 | 1 | 1008.0 |
| 20260901032550 | 60 | 56 | 0.0 | 3.0 | 0.00 | 0.00 | 0.00 | 1 | 1008.0 |
| 20260901032047 | 60 | 307 | 0.0 | 2.0 | 0.00 | 0.00 | 0.00 | 1 | 1008.0 |
| 20260901031604 | 60 | 305 | 0.0 | 4.0 | 0.00 | 0.00 | 0.00 | 1 | 1007.9 |
| 20260901031044 | 60 | 263 | 0.0 | 5.0 | 0.00 | 0.00 | 0.00 | 1 | 1007.9 |